Time,TemperatureF,DewpointF,PressureIn,WindDirection,WindDirectionDegrees,WindSpeedMPH,WindSpeedGustMPH,Humidity,HourlyPrecipIn,Conditions,Clouds,dailyrainin,SoftwareType,DateUTC
2013-01-19 04:44:00,28.4,4.2,30.18,SSW,203,5.7,5.7,35,0.00,,---,0.00,VWS V14.01,2013-01-19 09:44:00,
2013-01-19 04:45:00,28.4,4.2,30.18,SSW,197,6.4,7.9,35,0.00,,---,0.00,VWS V14.01,2013-01-19 09:45:00,
2013-01-19 04:49:00,28.4,4.2,30.18,SSW,208,4.3,6.4,35,0.00,,---,0.00,VWS V14.01,2013-01-19 09:49:00,
2013-01-19 04:52:00,28.4,4.2,30.18,SSW,211,0.0,4.3,35,0.00,,---,0.00,VWS V14.01,2013-01-19 09:52:00,
2013-01-19 04:58:00,28.4,4.2,30.18,WSW,243,0.0,5.7,35,0.00,,---,0.00,VWS V14.01,2013-01-19 09:58:00,
2013-01-19 05:04:00,28.4,4.2,30.18,WSW,239,3.6,9.3,35,0.00,,---,0.00,VWS V14.01,2013-01-19 10:04:00,
2013-01-19 05:09:00,28.4,4.9,30.18,SSW,196,5.7,7.9,36,0.00,,---,0.00,VWS V14.01,2013-01-19 10:09:00,
2013-01-19 05:15:00,28.4,5.5,30.18,SW,226,10.7,10.7,37,0.00,,---,0.00,VWS V14.01,2013-01-19 10:15:00,
2013-01-19 05:20:00,28.6,5.6,30.18,SSW,195,5.7,10.0,37,0.00,,---,0.00,VWS V14.01,2013-01-19 10:20:00,
2013-01-19 05:26:00,28.6,6.2,30.18,SSW,201,7.9,7.9,38,0.00,,---,0.00,VWS V14.01,2013-01-19 10:26:00,
2013-01-19 05:32:00,28.9,7.1,30.18,SW,220,7.9,9.3,39,0.00,,---,0.00,VWS V14.01,2013-01-19 10:32:00,
2013-01-19 05:37:00,29.1,7.8,30.18,WSW,239,9.3,9.3,40,0.00,,---,0.00,VWS V14.01,2013-01-19 10:37:00,
2013-01-19 05:43:00,29.5,8.7,30.18,SW,227,16.8,16.8,41,0.00,,---,0.00,VWS V14.01,2013-01-19 10:43:00,
2013-01-19 05:48:00,29.7,8.9,30.15,WSW,243,6.4,6.4,41,0.00,,---,0.00,VWS V14.01,2013-01-19 10:48:00,
2013-01-19 05:53:00,30.0,9.2,30.15,SSW,212,8.6,13.2,41,0.00,,---,0.00,VWS V14.01,2013-01-19 10:53:00,
2013-01-19 05:58:00,30.2,9.4,30.15,SSW,203,9.3,9.3,41,0.00,,---,0.00,VWS V14.01,2013-01-19 10:58:00,
2013-01-19 06:03:00,30.4,9.5,30.15,SW,218,8.6,16.1,41,0.00,,---,0.00,VWS V14.01,2013-01-19 11:03:00,
2013-01-19 06:08:00,30.6,9.7,30.15,SSW,198,10.0,16.8,41,0.00,,---,0.00,VWS V14.01,2013-01-19 11:08:00,
2013-01-19 15:55:00,51.3,12.7,29.88,SSW,198,7.9,7.9,21,0.00,,---,0.00,VWS V14.01,2013-01-19 20:55:00,
2013-01-19 15:56:00,51.3,12.7,29.88,SW,214,12.9,12.9,21,0.00,,---,0.00,VWS V14.01,2013-01-19 20:56:00,
2013-01-19 16:01:00,51.1,12.5,29.91,SW,231,6.4,10.0,21,0.00,,---,0.00,VWS V14.01,2013-01-19 21:01:00,
2013-01-19 16:07:00,50.7,12.2,29.91,SW,214,9.3,9.3,21,0.00,,---,0.00,VWS V14.01,2013-01-19 21:07:00,
2013-01-19 16:12:00,50.5,12.1,29.91,SW,230,8.6,12.9,21,0.00,,---,0.00,VWS V14.01,2013-01-19 21:12:00,
2013-01-19 16:18:00,50.4,11.9,29.88,SW,216,5.7,12.2,21,0.00,,---,0.00,VWS V14.01,2013-01-19 21:18:00,
2013-01-19 16:24:00,50.2,14.8,29.88,SSW,199,5.7,10.0,24,0.00,,---,0.00,VWS V14.01,2013-01-19 21:24:00,
2013-01-19 16:30:00,49.8,14.5,29.88,SSW,204,8.6,10.7,24,0.00,,---,0.00,VWS V14.01,2013-01-19 21:30:00,
2013-01-19 16:35:00,49.6,14.3,29.88,SSW,205,13.2,13.2,24,0.00,,---,0.00,VWS V14.01,2013-01-19 21:35:00,
2013-01-19 16:43:00,49.3,14.0,29.88,WSW,238,10.0,10.0,24,0.00,,---,0.00,VWS V14.01,2013-01-19 21:43:00,
2013-01-19 16:49:00,49.1,13.9,29.88,SSW,202,7.9,9.3,24,0.00,,---,0.00,VWS V14.01,2013-01-19 21:49:00,
2013-01-19 16:55:00,48.7,13.6,29.88,South,186,9.3,14.0,24,0.00,,---,0.00,VWS V14.01,2013-01-19 21:55:00,
2013-01-19 17:00:00,48.6,13.4,29.88,SW,219,7.9,10.0,24,0.00,,---,0.00,VWS V14.01,2013-01-19 22:00:00,
2013-01-19 17:08:00,48.2,13.1,29.88,SW,214,7.9,12.2,24,0.00,,---,0.00,VWS V14.01,2013-01-19 22:08:00,
2013-01-19 17:14:00,48.0,13.0,29.88,SSW,197,9.3,12.9,24,0.00,,---,0.00,VWS V14.01,2013-01-19 22:14:00,
2013-01-19 17:20:00,47.8,12.8,29.88,SW,229,0.0,6.4,24,0.00,,---,0.00,VWS V14.01,2013-01-19 22:20:00,
2013-01-19 17:25:00,47.7,12.7,29.88,SSW,195,7.9,12.2,24,0.00,,---,0.00,VWS V14.01,2013-01-19 22:25:00,
2013-01-19 17:31:00,47.5,12.5,29.88,WSW,250,9.3,9.3,24,0.00,,---,0.00,VWS V14.01,2013-01-19 22:31:00,
2013-01-19 17:36:00,47.5,12.5,29.88,WSW,250,9.3,9.3,24,0.00,,---,0.00,VWS V14.01,2013-01-19 22:36:00,
2013-01-19 17:42:00,47.5,12.5,29.88,WSW,250,9.3,9.3,24,0.00,,---,0.00,VWS V14.01,2013-01-19 22:42:00,
2013-01-19 17:47:00,47.5,12.5,29.88,WSW,250,9.3,9.3,24,0.00,,---,0.00,VWS V14.01,2013-01-19 22:47:00,
2013-01-19 17:53:00,47.5,12.5,29.88,WSW,250,9.3,9.3,24,0.00,,---,0.00,VWS V14.01,2013-01-19 22:53:00,
2013-01-19 17:59:00,47.1,14.9,29.88,WSW,250,9.3,9.3,27,0.00,,---,0.00,VWS V14.01,2013-01-19 22:59:00,
2013-01-19 18:06:00,46.9,14.7,29.88,WSW,250,9.3,9.3,27,0.00,,---,0.00,VWS V14.01,2013-01-19 23:06:00,
2013-01-19 18:12:00,46.9,14.7,29.88,WSW,250,9.3,9.3,27,0.00,,---,0.00,VWS V14.01,2013-01-19 23:12:00,
2013-01-19 18:17:00,46.8,14.6,29.88,WSW,250,9.3,9.3,27,0.00,,---,0.00,VWS V14.01,2013-01-19 23:17:00,
2013-01-19 18:22:00,46.6,14.4,29.88,WSW,250,9.3,9.3,27,0.00,,---,0.00,VWS V14.01,2013-01-19 23:22:00,
2013-01-19 18:28:00,46.6,14.4,29.88,WSW,250,9.3,9.3,27,0.00,,---,0.00,VWS V14.01,2013-01-19 23:28:00,
2013-01-19 18:33:00,46.2,14.1,29.88,WSW,250,9.3,9.3,27,0.00,,---,0.00,VWS V14.01,2013-01-19 23:33:00,
2013-01-19 18:39:00,46.0,13.9,29.88,WSW,250,9.3,9.3,27,0.00,,---,0.00,VWS V14.01,2013-01-19 23:39:00,
2013-01-19 18:45:00,46.0,13.9,29.88,WSW,250,9.3,9.3,27,0.00,,---,0.00,VWS V14.01,2013-01-19 23:45:00,
2013-01-19 18:52:00,46.0,13.9,29.88,WSW,250,9.3,9.3,27,0.00,,---,0.00,VWS V14.01,2013-01-19 23:52:00,
2013-01-19 18:58:00,46.0,13.9,29.88,WSW,250,9.3,9.3,27,0.00,,---,0.00,VWS V14.01,2013-01-19 23:58:00,
2013-01-19 19:03:00,46.0,13.9,29.88,WSW,250,9.3,9.3,27,0.00,,---,0.00,VWS V14.01,2013-01-20 00:03:00,
2013-01-19 19:10:00,45.7,14.5,29.88,WSW,250,9.3,9.3,28,0.00,,---,0.00,VWS V14.01,2013-01-20 00:10:00,
2013-01-19 19:17:00,45.3,14.1,29.88,WSW,250,9.3,9.3,28,0.00,,---,0.00,VWS V14.01,2013-01-20 00:17:00,
2013-01-19 19:22:00,45.3,14.1,29.88,WSW,250,9.3,9.3,28,0.00,,---,0.00,VWS V14.01,2013-01-20 00:22:00,
2013-01-19 19:27:00,45.3,14.1,29.88,WSW,250,9.3,9.3,28,0.00,,---,0.00,VWS V14.01,2013-01-20 00:27:00,
2013-01-19 19:33:00,44.8,13.7,29.88,WSW,250,9.3,9.3,28,0.00,,---,0.00,VWS V14.01,2013-01-20 00:33:00,
2013-01-19 19:38:00,44.8,13.7,29.88,WSW,250,9.3,9.3,28,0.00,,---,0.00,VWS V14.01,2013-01-20 00:38:00,
2013-01-19 19:44:00,44.4,14.2,29.88,WSW,250,9.3,9.3,29,0.00,,---,0.00,VWS V14.01,2013-01-20 00:44:00,
2013-01-19 19:49:00,44.1,13.9,29.88,WSW,250,9.3,9.3,29,0.00,,---,0.00,VWS V14.01,2013-01-20 00:49:00,
2013-01-19 19:55:00,44.1,13.9,29.88,SSW,209,6.4,6.4,29,0.00,,---,0.00,VWS V14.01,2013-01-20 00:55:00,
2013-01-19 20:02:00,43.7,13.5,29.88,SSW,209,6.4,6.4,29,0.00,,---,0.00,VWS V14.01,2013-01-20 01:02:00,
2013-01-19 20:07:00,43.3,13.2,29.88,SSW,209,6.4,6.4,29,0.00,,---,0.00,VWS V14.01,2013-01-20 01:07:00,